Hourly Weather Rudnya Nisimkovichskaya

Today, 22 April, Thursday

Time Temperature Precipitation Wind Pressure Humidity
00:00 +5°C° 0.1 mm 3 mps 746 mmHg 90%
01:00 +5°C° 0.1 mm 3 mps 746 mmHg 92%
02:00 +4°C° 0.1 mm 3 mps 746 mmHg 95%
03:00 +4°C° 0.1 mm 3 mps 746 mmHg 95%
04:00 +4°C° 0.1 mm 3 mps 746 mmHg 95%
05:00 +4°C° 0.1 mm 3 mps 746 mmHg 95%
06:00 +7°C° 0 mm 3 mps 747 mmHg 89%
07:00 +7°C° 0 mm 4 mps 747 mmHg 83%
08:00 +10°C° 0 mm 4 mps 747 mmHg 77%
09:00 +10°C° 0.1 mm 5 mps 747 mmHg 70%
10:00 +13°C° 0.1 mm 5 mps 747 mmHg 64%
11:00 +14°C° 0.1 mm 5 mps 747 mmHg 57%
12:00 +15°C° 0.3 mm 6 mps 747 mmHg 54%
13:00 +15°C° 0.3 mm 6 mps 747 mmHg 51%
14:00 +16°C° 0.3 mm 6 mps 747 mmHg 48%
15:00 +15°C° 0.1 mm 5 mps 747 mmHg 54%
16:00 +14°C° 0.1 mm 4 mps 747 mmHg 59%
17:00 +13°C° 0.1 mm 4 mps 746 mmHg 65%
18:00 +12°C° 0.3 mm 4 mps 746 mmHg 70%
19:00 +10°C° 0.3 mm 5 mps 747 mmHg 76%
20:00 +9°C° 0.3 mm 5 mps 747 mmHg 81%
21:00 +9°C° 0.1 mm 5 mps 747 mmHg 84%
22:00 +8°C° 0.1 mm 5 mps 747 mmHg 87%
23:00 +8°C° 0.1 mm 5 mps 747 mmHg 90%

Tomorrow, 23 April, Friday

Time Temperature Precipitation Wind Pressure Humidity
00:00 +7°C° 0 mm 4 mps 747 mmHg 91%
01:00 +7°C° 0 mm 3 mps 747 mmHg 91%
02:00 +7°C° 0 mm 2 mps 747 mmHg 92%
03:00 +5°C° 1.2 mm 3 mps 747 mmHg 92%
04:00 +4°C° 1.2 mm 3 mps 747 mmHg 93%
05:00 +3°C° 1.2 mm 4 mps 748 mmHg 93%
06:00 +4°C° 0.2 mm 4 mps 748 mmHg 88%
07:00 +4°C° 0.2 mm 4 mps 748 mmHg 83%
08:00 +5°C° 0.2 mm 3 mps 748 mmHg 78%
09:00 +6°C° 0 mm 4 mps 748 mmHg 70%
10:00 +7°C° 0 mm 4 mps 748 mmHg 63%
11:00 +8°C° 0 mm 4 mps 748 mmHg 55%
12:00 +8°C° 0 mm 4 mps 748 mmHg 52%
13:00 +8°C° 0 mm 4 mps 748 mmHg 49%
14:00 +10°C° 0 mm 4 mps 748 mmHg 46%
15:00 +8°C° 0.1 mm 4 mps 748 mmHg 50%
16:00 +8°C° 0.1 mm 4 mps 748 mmHg 55%
17:00 +7°C° 0.1 mm 4 mps 748 mmHg 59%
18:00 +6°C° 0.1 mm 4 mps 748 mmHg 65%
19:00 +5°C° 0.1 mm 3 mps 748 mmHg 71%
20:00 +4°C° 0.1 mm 2 mps 748 mmHg 77%
21:00 +4°C° 0 mm 2 mps 748 mmHg 79%
22:00 +3°C° 0 mm 2 mps 748 mmHg 81%
23:00 +3°C° 0 mm 2 mps 748 mmHg 83%

Day after tomorrow, 24 April, Saturday

Time Temperature Precipitation Wind Pressure Humidity
00:00 +2°C° 0 mm 2 mps 747 mmHg 84%
01:00 +2°C° 0 mm 2 mps 747 mmHg 86%
02:00 +1°C° 0 mm 2 mps 747 mmHg 87%
03:00 +1°C° 0 mm 2 mps 747 mmHg 87%
04:00 -1°C° 0 mm 2 mps 747 mmHg 87%
05:00 +1°C° 0 mm 1 mps 747 mmHg 87%
06:00 +2°C° 0 mm 2 mps 747 mmHg 80%
07:00 +3°C° 0 mm 2 mps 747 mmHg 74%
08:00 +5°C° 0 mm 2 mps 747 mmHg 67%
09:00 +4°C° 0.1 mm 3 mps 747 mmHg 70%
10:00 +4°C° 0.1 mm 4 mps 747 mmHg 73%
11:00 +4°C° 0.1 mm 4 mps 747 mmHg 76%
12:00 +3°C° 0.2 mm 5 mps 747 mmHg 67%
13:00 +5°C° 0.2 mm 5 mps 747 mmHg 58%
14:00 +6°C° 0.2 mm 5 mps 747 mmHg 50%
15:00 +6°C° 0 mm 5 mps 748 mmHg 51%
16:00 +6°C° 0 mm 5 mps 748 mmHg 53%
17:00 +6°C° 0 mm 5 mps 748 mmHg 54%
18:00 +5°C° 0 mm 5 mps 748 mmHg 61%
19:00 +3°C° 0 mm 4 mps 749 mmHg 68%
20:00 +1°C° 0 mm 4 mps 749 mmHg 75%
21:00 +1°C° 0 mm 4 mps 749 mmHg 77%
22:00 0°C° 0 mm 4 mps 749 mmHg 78%
23:00 0°C° 0 mm 4 mps 749 mmHg 80%

25 April, Sunday

Time Temperature Precipitation Wind Pressure Humidity
00:00 -1°C° 0 mm 4 mps 749 mmHg 81%
01:00 -1°C° 0 mm 4 mps 749 mmHg 82%
02:00 -2°C° 0 mm 4 mps 749 mmHg 84%
03:00 -2°C° 0 mm 4 mps 749 mmHg 83%
04:00 -2°C° 0 mm 4 mps 749 mmHg 81%
05:00 -2°C° 0 mm 4 mps 749 mmHg 80%
06:00 -1°C° 0 mm 5 mps 749 mmHg 74%
07:00 0°C° 0 mm 5 mps 749 mmHg 69%
08:00 +1°C° 0 mm 6 mps 749 mmHg 63%
09:00 +2°C° 0 mm 6 mps 749 mmHg 60%
10:00 +2°C° 0 mm 6 mps 749 mmHg 58%
11:00 +3°C° 0 mm 6 mps 749 mmHg 55%
12:00 +3°C° 0 mm 6 mps 749 mmHg 56%
13:00 +3°C° 0 mm 6 mps 749 mmHg 57%
14:00 +3°C° 0 mm 6 mps 749 mmHg 58%
15:00 +3°C° 0 mm 5 mps 749 mmHg 56%
16:00 +5°C° 0 mm 5 mps 749 mmHg 53%
17:00 +5°C° 0 mm 4 mps 749 mmHg 51%
18:00 +3°C° 0 mm 4 mps 749 mmHg 58%
19:00 +2°C° 0 mm 3 mps 749 mmHg 65%
20:00 +1°C° 0 mm 3 mps 749 mmHg 72%
21:00 0°C° 0 mm 3 mps 749 mmHg 76%
22:00 0°C° 0 mm 3 mps 749 mmHg 79%
23:00 -1°C° 0 mm 3 mps 749 mmHg 83%

26 April, Monday

Time Temperature Precipitation Wind Pressure Humidity
00:00 -1°C° 0 mm 3 mps 749 mmHg 86%
01:00 -1°C° 0 mm 3 mps 749 mmHg 88%
02:00 -2°C° 0 mm 2 mps 749 mmHg 91%
03:00 -1°C° 0 mm 2 mps 749 mmHg 91%
04:00 -1°C° 0 mm 2 mps 749 mmHg 90%
05:00 -1°C° 0 mm 2 mps 749 mmHg 89%
06:00 +1°C° 0 mm 2 mps 749 mmHg 85%
07:00 +2°C° 0 mm 2 mps 748 mmHg 80%
08:00 +2°C° 0 mm 3 mps 748 mmHg 75%
09:00 +3°C° 0.2 mm 3 mps 748 mmHg 69%
10:00 +4°C° 0.2 mm 3 mps 748 mmHg 62%
11:00 +4°C° 0.2 mm 4 mps 748 mmHg 55%
12:00 +5°C° 0.1 mm 4 mps 748 mmHg 51%
13:00 +5°C° 0.1 mm 5 mps 748 mmHg 47%
14:00 +6°C° 0.1 mm 5 mps 748 mmHg 43%
15:00 +6°C° 0 mm 5 mps 748 mmHg 45%
16:00 +5°C° 0 mm 5 mps 748 mmHg 48%
17:00 +5°C° 0 mm 5 mps 748 mmHg 51%
18:00 +4°C° 0 mm 4 mps 748 mmHg 58%
19:00 +2°C° 0 mm 3 mps 748 mmHg 66%
20:00 +1°C° 0 mm 3 mps 748 mmHg 73%
21:00 0°C° 0 mm 3 mps 748 mmHg 76%
22:00 0°C° 0 mm 3 mps 748 mmHg 80%
23:00 -1°C° 0 mm 2 mps 749 mmHg 84%

27 April, Tuesday

Time Temperature Precipitation Wind Pressure Humidity
00:00 -1°C° 0 mm 3 mps 749 mmHg 84%
01:00 -1°C° 0 mm 3 mps 749 mmHg 85%
02:00 -1°C° 0 mm 3 mps 749 mmHg 86%
03:00 -2°C° 0 mm 3 mps 749 mmHg 88%
04:00 -2°C° 0 mm 3 mps 749 mmHg 91%
05:00 -2°C° 0 mm 3 mps 749 mmHg 94%
06:00 0°C° 0 mm 3 mps 749 mmHg 85%
07:00 +2°C° 0 mm 3 mps 749 mmHg 77%
08:00 +4°C° 0 mm 3 mps 749 mmHg 68%
09:00 +5°C° 0 mm 4 mps 749 mmHg 63%
10:00 +6°C° 0 mm 4 mps 749 mmHg 57%
11:00 +7°C° 0 mm 4 mps 749 mmHg 52%
12:00 +8°C° 0 mm 4 mps 749 mmHg 49%
13:00 +8°C° 0 mm 4 mps 748 mmHg 47%
14:00 +9°C° 0 mm 5 mps 748 mmHg 44%
15:00 +10°C° 0 mm 4 mps 748 mmHg 47%
16:00 +10°C° 0 mm 4 mps 748 mmHg 49%
17:00 +10°C° 0 mm 3 mps 748 mmHg 51%
18:00 +8°C° 0 mm 3 mps 748 mmHg 56%
19:00 +7°C° 0 mm 2 mps 748 mmHg 61%
20:00 +6°C° 0 mm 1 mps 748 mmHg 66%
21:00 +5°C° 0 mm 2 mps 748 mmHg 68%
22:00 +5°C° 0 mm 2 mps 747 mmHg 70%
23:00 +4°C° 0 mm 2 mps 747 mmHg 71%
Show more